Demopolis Municipal Airport, AL

12:43 PM CDT on September 16, 2019 (GMT -0500)
Demopolis Municipal Airport

Weather History for KDYA - July, 2019

Change the Weather History Date:

Tuesday, July 16, 2019

  Actual Average (KNMM) Record (KNMM)
Temperature  
Mean Temperature 84 °F -  
Max Temperature 93 °F 89 °F 102 °F (2000)
Min Temperature 75 °F 69 °F 63 °F (2014)
Cooling Degree Days 19    
Growing Degree Days 34 (Base 50)    
Moisture  
Dew Point 73 °F    
Average Humidity 73    
Maximum Humidity 100    
Minimum Humidity 46    
Precipitation  
Precipitation 0.00 in - - ()
Sea Level Pressure  
Sea Level Pressure 30.08 in    
Wind  
Wind Speed 4 mph (SSE)    
Max Wind Speed 12 mph    
Max Gust Speed 18 mph    
Visibility 8 miles    
Events      
Averages and records for this station are not official NWS values.
T = Trace of Precipitation, MM = Missing Value Source: NWS Daily Summary

Daily Weather History Graph

Daily Weather History Graph

Search for Another Location

Airport or City:

Astronomy

Jul. 16, 2019 Rise Set
Actual Time 5:55 AM CDT 7:59 PM CDT
Civil Twilight 5:28 AM CDT 8:27 PM CDT
Nautical Twilight 4:54 AM CDT 9:01 PM CDT
Astronomical Twilight 4:18 AM CDT 9:37 PM CDT
Moon 8:04 PM CDT 5:34 AM CDT
Length of Visible Light 14h 59m
Length of Day
14h 03m
Full, 100% of the Moon is Illuminated
Jul 16
Full
Jul 16
Full
Jul 24
Last Quarter
Jul 31
New
Aug 7
First Quarter

Hourly Weather History & Observations

Time (CDT) Temp. Heat Index Dew Point Humidity Pressure Visibility Wind Dir Wind Speed Gust Speed Precip Events Conditions
12:15 AM 77.2 °F - 75.7 °F 95% 30.07 in 7.0 mi SSE 3.5 mph - N/A   Clear
12:35 AM 77.0 °F - 75.7 °F 96% 30.07 in 7.0 mi Calm Calm - N/A   Clear
12:55 AM 77.0 °F - 75.6 °F 95% 30.07 in 7.0 mi Calm Calm - N/A   Clear
1:15 AM 76.3 °F - 75.2 °F 96% 30.07 in 7.0 mi SSE 3.5 mph - N/A   Clear
1:35 AM 76.1 °F - 75.6 °F 98% 30.07 in 7.0 mi Calm Calm - N/A   Clear
1:55 AM 76.1 °F - 76.1 °F 100% 30.06 in 7.0 mi SSE 3.5 mph - N/A   Clear
2:15 AM 76.1 °F - 76.1 °F 100% 30.06 in 7.0 mi SSE 3.5 mph - N/A   Clear
2:35 AM 76.1 °F - 76.1 °F 100% 30.06 in 7.0 mi Calm Calm - N/A   Clear
2:55 AM 75.9 °F - 75.9 °F 100% 30.06 in 5.0 mi SSE 3.5 mph - N/A   Clear
3:15 AM 75.6 °F - 75.6 °F 100% 30.05 in 5.0 mi Calm Calm - N/A   Clear
3:35 AM 75.6 °F - 75.6 °F 100% 30.05 in 5.0 mi Calm Calm - N/A   Clear
3:55 AM 75.6 °F - 75.6 °F 100% 30.06 in 5.0 mi Calm Calm - N/A   Mostly Cloudy
4:15 AM - - - N/A% 30.06 in 5.0 mi Calm Calm - N/A   Overcast
4:35 AM - - - N/A% 30.06 in 5.0 mi Calm Calm - N/A   Haze
4:55 AM - - - N/A% 30.07 in 7.0 mi SSE 4.6 mph - N/A   Overcast
5:15 AM - - - N/A% 30.07 in 7.0 mi SSE 3.5 mph - N/A   Overcast
5:35 AM - - - N/A% 30.07 in 5.0 mi Calm Calm - N/A   Haze
5:55 AM - - - N/A% 30.08 in 5.0 mi SSE 3.5 mph - N/A   Haze
6:15 AM - - - N/A% 30.09 in 5.0 mi SSE 3.5 mph - N/A   Haze
6:35 AM - - - N/A% 30.10 in 5.0 mi Calm Calm - N/A   Haze
6:55 AM - - - N/A% 30.11 in 5.0 mi SE 3.5 mph - N/A   Haze
7:15 AM 77.4 °F - 77.4 °F 100% 30.12 in 5.0 mi SSE 4.6 mph - N/A   Scattered Clouds
7:35 AM 78.4 °F - 76.5 °F 94% 30.12 in 5.0 mi SSE 4.6 mph - N/A   Scattered Clouds
7:55 AM 79.7 °F - 76.1 °F 89% 30.12 in 5.0 mi SSE 5.8 mph - N/A   Clear
8:15 AM 80.4 °F 86.1 °F 75.9 °F 86% 30.12 in 5.0 mi SE 8.1 mph - N/A   Scattered Clouds
8:35 AM 81.0 °F 87.1 °F 75.6 °F 84% 30.12 in 5.0 mi SSE 6.9 mph - N/A   Haze
8:55 AM 81.7 °F 88.3 °F 75.2 °F 81% 30.12 in 5.0 mi SSE 8.1 mph - N/A   Haze
9:15 AM 81.9 °F 88.5 °F 75.2 °F 80% 30.12 in 7.0 mi SSE 9.2 mph - N/A   Mostly Cloudy
9:35 AM 82.9 °F 89.9 °F 74.7 °F 76% 30.12 in 7.0 mi SSE 8.1 mph - N/A   Mostly Cloudy
9:55 AM 84.4 °F 91.7 °F 74.1 °F 71% 30.13 in 5.0 mi SSW 11.5 mph 18.4 mph N/A   Haze
10:15 AM 83.8 °F 90.4 °F 73.6 °F 71% 30.13 in 7.0 mi South 9.2 mph - N/A   Mostly Cloudy
10:35 AM 86.4 °F 94.2 °F 73.6 °F 66% 30.13 in 7.0 mi South 8.1 mph - N/A   Scattered Clouds
10:55 AM 86.2 °F 93.4 °F 73.0 °F 65% 30.12 in - SSW 9.2 mph - N/A   Unknown
11:15 AM 87.6 °F 95.7 °F 73.8 °F 63% 30.12 in 10.0 mi SSW 9.2 mph - N/A   Scattered Clouds
11:35 AM 87.8 °F 95.6 °F 73.2 °F 62% 30.12 in 10.0 mi South 4.6 mph 16.1 mph N/A   Scattered Clouds
11:55 AM 88.7 °F 96.7 °F 73.2 °F 60% 30.12 in 10.0 mi South 8.1 mph - N/A   Mostly Cloudy
12:15 PM 88.9 °F 97.1 °F 73.4 °F 60% 30.12 in 10.0 mi South 8.1 mph - N/A   Mostly Cloudy
12:35 PM 89.6 °F 97.7 °F 73.2 °F 58% 30.12 in 10.0 mi South 10.4 mph 16.1 mph N/A   Mostly Cloudy
12:55 PM 91.2 °F 99.1 °F 72.3 °F 54% 30.11 in 10.0 mi SSW 6.9 mph - N/A   Scattered Clouds
1:15 PM 91.2 °F 99.1 °F 72.3 °F 54% 30.10 in 10.0 mi SSE 8.1 mph - N/A   Mostly Cloudy
1:35 PM 90.9 °F 97.8 °F 71.8 °F 53% 30.09 in 10.0 mi South 5.8 mph - N/A   Scattered Clouds
1:55 PM 92.7 °F 100.5 °F 72.0 °F 51% 30.09 in 10.0 mi SSE 8.1 mph - N/A   Scattered Clouds
2:15 PM 92.1 °F 98.8 °F 71.2 °F 50% 30.08 in 10.0 mi South 9.2 mph - N/A   Scattered Clouds
2:35 PM 91.4 °F 97.8 °F 71.1 °F 51% 30.07 in 10.0 mi South 11.5 mph 16.1 mph N/A   Mostly Cloudy
2:55 PM 89.8 °F 96.0 °F 71.2 °F 54% 30.07 in 10.0 mi South 5.8 mph 17.3 mph N/A   Mostly Cloudy
3:15 PM 93.2 °F 101.1 °F 71.8 °F 50% 30.05 in 10.0 mi South 8.1 mph - N/A   Scattered Clouds
3:35 PM 92.5 °F 99.0 °F 70.7 °F 49% 30.05 in 10.0 mi South 6.9 mph - N/A   Scattered Clouds
3:55 PM 93.2 °F 99.9 °F 70.9 °F 48% 30.04 in 10.0 mi SSE 9.2 mph - N/A   Clear
4:15 PM 91.8 °F 97.5 °F 70.0 °F 49% 30.04 in 10.0 mi SSW 9.2 mph - N/A   Scattered Clouds
4:35 PM 92.1 °F 97.7 °F 70.0 °F 48% 30.04 in 10.0 mi South 6.9 mph - N/A   Scattered Clouds
4:55 PM 92.8 °F 98.1 °F 69.1 °F 46% 30.04 in 10.0 mi South 8.1 mph - N/A   Scattered Clouds
5:15 PM 92.5 °F 97.4 °F 68.7 °F 46% 30.04 in 10.0 mi SSE 8.1 mph - N/A   Clear
5:35 PM 90.1 °F 95.3 °F 69.6 °F 51% 30.03 in 10.0 mi South 3.5 mph - N/A   Mostly Cloudy
5:55 PM 91.6 °F 97.2 °F 70.0 °F 49% 30.04 in 10.0 mi South 4.6 mph - N/A   Scattered Clouds
6:15 PM 91.8 °F 97.5 °F 70.0 °F 49% 30.04 in 10.0 mi South 3.5 mph - N/A   Clear
6:35 PM 91.6 °F 97.2 °F 69.8 °F 49% 30.04 in 10.0 mi South 4.6 mph - N/A   Clear
6:55 PM 90.7 °F 95.9 °F 69.8 °F 50% 30.03 in 10.0 mi South 5.8 mph - N/A   Clear
7:15 PM 88.9 °F 94.2 °F 70.5 °F 54% 30.05 in 10.0 mi Calm Calm - N/A   Clear
7:35 PM 86.9 °F 92.1 °F 70.7 °F 58% 30.04 in 10.0 mi Calm Calm - N/A   Clear
7:55 PM 85.1 °F 90.8 °F 71.6 °F 64% 30.05 in 10.0 mi Calm Calm - N/A   Clear
8:15 PM 81.7 °F 87.1 °F 73.4 °F 76% 30.05 in 10.0 mi Calm Calm - N/A   Clear
8:35 PM 79.0 °F - 73.4 °F 83% 30.06 in 10.0 mi Calm Calm - N/A   Clear
8:55 PM 78.4 °F - 73.4 °F 84% 30.07 in 10.0 mi Calm Calm - N/A   Scattered Clouds
9:15 PM 80.2 °F 84.5 °F 72.7 °F 78% 30.07 in 10.0 mi Calm Calm - N/A   Mostly Cloudy
9:35 PM 79.0 °F - 72.5 °F 80% 30.07 in 10.0 mi Calm Calm - N/A   Scattered Clouds
9:55 PM 77.9 °F - 72.9 °F 84% 30.08 in 10.0 mi Calm Calm - N/A   Clear
10:15 PM 77.4 °F - 72.3 °F 84% 30.09 in 10.0 mi Calm Calm - N/A   Clear
10:35 PM 76.3 °F - 72.5 °F 88% 30.09 in 10.0 mi Calm Calm - N/A   Clear
10:55 PM 75.4 °F - 72.3 °F 90% 30.09 in 10.0 mi Calm Calm - N/A   Clear
11:15 PM 75.0 °F - 72.5 °F 92% 30.09 in 10.0 mi Calm Calm - N/A   Scattered Clouds
11:55 PM 75.4 °F - 72.5 °F 91% 30.09 in 10.0 mi Calm Calm - N/A   Clear